Location: Bo?a Wola
(50.4192°N, 19.7966°E)
Time: 20:22:00
(UTC+00:00)

Cosmos 1455 Rocket - Pass Details

Date: 18 September 2024
Orbit: 601 x 623 km, 82.5° (Epoch: 13 October)

Event Time Altitude Azimuth Distance (km) Brightness Sun altitude
Exits shadow 00:21:40 25° 27° (NNE) 1,246 5.2 -33.1°
Drops below altitude 10° 00:23:34 10° 18° (NNE) 1,969 6.4 -32.9°
Sets 00:25:50 0° 14° (NNE) 2,881 7.4 -32.7°
